[[{"header":{"parameterUnit":"m.s-1","parameterCategory":1,"la1":30.2991,"la2":30.254,"lo1":-89.0895,"lo2":-89.0444,"dy":0.0017,"dx":0.0017,"nx":28,"ny":28,"refTime":"2025-09-05T03:00:00:Z","depth":0,"parameterNumber":2,"parameterNumberName":"U-component_of_WINDS"},"data":[0,0,0,0,0,0,0,0,0,0,0,0,0,0,0,0,0,0,0,0,0,0,0,0,0,0,0,0,0,0,0,0,0,0,0,0,0,0,0,0,0,0,0,0,0,0,0,0,0,0,0,0,0,0,0,0,0,0,0.3084,0.3084,0,0.3108,0.3109,0.3109,0.3139,0.3139,0.314,0.314,0.3164,0.3164,0.3164,0,0,0,0,0,0,0,0,0,0,0,0,0,0.3061,0.3062,0.3084,0.3084,0.3085,0.3108,0.3109,0.3109,0.3139,0.3139,0.314,0.314,0.3164,0.3164,0.3164,0,0,0,0,0,0,0,0,0,0,0,0,0,0.3077,0.3062,0.3084,0.3102,0.3104,0.3108,0.3109,0.3109,0.3138,0.3139,0.314,0.3141,0.3164,0.3164,0.3164,0.3152,0,0,0.3165,0.3165,0,0,0,0,0,0,0,0,0.3076,0.3078,0.3099,0.3101,0.3103,0.3121,0.3109,0.3123,0.3138,0.3125,0.314,0.3141,0.3149,0.3151,0.3154,0.3153,0.3154,0.3165,0.3165,0.3165,0.3166,0,0,0,0,0,0,0,0.3075,0.3077,0.3094,0.31,0.3102,0.3109,0.3112,0.3112,0.3133,0.3127,0.3129,0.3131,0.315,0.3153,0.3154,0.3154,0.3165,0.3165,0.3166,0.3166,0.3143,0.3143,0,0,0,0,0,0,0.3071,0.3076,0.3093,0.3094,0.3091,0.3109,0.3112,0.3115,0.3133,0.3137,0.3131,0.3133,0.3152,0.3154,0.3155,0.3141,0.3165,0.3166,0.3166,0.3144,0.3143,0.3142,0,0,0,0,0,0,0.3071,0.3073,0.3092,0.3086,0.3089,0.3108,0.3111,0.3115,0.3118,0.3136,0.314,0.313,0.3153,0.3155,0.3152,0.3142,0.3166,0.3166,0.3145,0.3144,0.3143,0.3112,0,0,0,0,0,0,0.307,0.3072,0.3068,0.3085,0.3089,0.3089,0.3111,0.3115,0.3118,0.3121,0.3137,0.314,0.3154,0.3152,0.3152,0.3143,0.3166,0.3146,0.3144,0.3143,0.3114,0.311,0.3106,0,0,0,0,0,0.3069,0.3059,0.3068,0.307,0.3084,0.3088,0.309,0.3107,0.3118,0.3113,0.3125,0.3139,0.3143,0.3151,0.3152,0.3142,0.3147,0.3145,0.3143,0.3116,0.3111,0.3107,0,0,0,0,0,0,0.304,0.3061,0.3072,0.3067,0.3076,0.3093,0.3088,0.3101,0.3107,0.3109,0.3129,0.3132,0.3127,0.3135,0.3143,0.3131,0.3147,0.3145,0.3126,0.3121,0.3117,0.3115,0.3167,0,0,0,0,0,0.3033,0.3035,0.3053,0.3047,0.3051,0.3069,0.3071,0.3083,0.3093,0.3097,0.3108,0.3116,0.3119,0.3121,0.3125,0.3116,0.3118,0.3109,0.3106,0.3103,0.31,0.3094,0.309,0.3137,0.3137,0.3137,0,0,0.3018,0.303,0.303,0.3041,0.305,0.305,0.3072,0.3072,0.3072,0.3097,0.3094,0.3103,0.3114,0.3107,0.3105,0.3113,0.3088,0.31,0.3098,0.3097,0.3092,0.3088,0.3084,0.3135,0.3136,0.3136,0,0,0.2991,0.3001,0.2996,0.3004,0.3016,0.3028,0.3027,0.3043,0.3049,0.3047,0.3065,0.3066,0.3071,0.3077,0.3081,0.3056,0.3069,0.3057,0.3036,0.303,0.3026,0.3023,0.3012,0.3008,0.3055,0.3055,0.3055,0,0.2971,0.2973,0.2992,0.2991,0.2994,0.3017,0.3011,0.3018,0.303,0.3032,0.3042,0.3048,0.3057,0.3051,0.3045,0.3048,0.3046,0.3054,0.3026,0.3023,0.302,0.301,0.3006,0.3053,0.3053,0.3054,0.3054,0,0.2947,0.2948,0.2943,0.2954,0.2958,0.2954,0.2972,0.2973,0.2984,0.2995,0.2992,0.3003,0.3009,0.3009,0.3021,0.3005,0.3009,0.3022,0.3038,0.3013,0.3004,0.3,0.3051,0.3051,0.3052,0.3052,0,0,0.2902,0.2924,0.2921,0.2926,0.294,0.2941,0.2938,0.2944,0.2944,0.2952,0.2949,0.2952,0.2964,0.2968,0.2981,0.2975,0.2952,0.2989,0.2989,0.298,0.2933,0.2922,0.2917,0.2961,0.2961,0.296,0.2932,0,0.2877,0.2873,0.2889,0.2881,0.2881,0.2902,0.29,0.2908,0.2917,0.2918,0.2929,0.2931,0.2947,0.2949,0.2945,0.2956,0.2943,0.2958,0.2957,0.2957,0.2952,0.2913,0.2901,0.2873,0.2928,0.2928,0.2927,0,0.2846,0.2852,0.2844,0.2857,0.2858,0.2855,0.2861,0.2863,0.2872,0.2879,0.2883,0.2898,0.2895,0.2912,0.2907,0.2917,0.2918,0.2923,0.2922,0.2921,0.2939,0.2909,0.2865,0.286,0.2922,0.2923,0.2923,0,0.2812,0.2818,0.2813,0.2816,0.2833,0.283,0.2837,0.2847,0.2849,0.2854,0.2855,0.286,0.2862,0.2865,0.288,0.2891,0.2873,0.2891,0.2877,0.2877,0.2871,0.2871,0.2825,0.2875,0.2875,0.2875,0.2875,0,0.278,0.2774,0.2797,0.2794,0.2787,0.2806,0.2798,0.2807,0.2815,0.2813,0.2833,0.283,0.2851,0.2851,0.2862,0.2855,0.2857,0.2862,0.2864,0.2859,0.2858,0.2858,0.286,0.2874,0.2874,0.2874,0.2874,0,0.274,0.2755,0.2751,0.2767,0.2771,0.2765,0.2778,0.2775,0.2786,0.2783,0.2784,0.2801,0.2801,0.2817,0.2821,0.2829,0.2816,0.2824,0.2813,0.2814,0.2799,0.2799,0.275,0.2743,0.2799,0.2798,0.2798,0,0.2718,0.2713,0.2728,0.2728,0.2734,0.2734,0.2736,0.2755,0.2756,0.2765,0.2761,0.2763,0.2766,0.2765,0.2778,0.278,0.2787,0.2769,0.2787,0.2781,0.2784,0.2783,0.2782,0.2765,0.2764,0.2764,0.2763,0,0.2676,0.2684,0.2686,0.2691,0.2693,0.2697,0.2703,0.2702,0.2722,0.2722,0.2723,0.2725,0.2728,0.2729,0.2734,0.2741,0.2754,0.2758,0.2754,0.2747,0.274,0.2742,0.28,0.2758,0.2759,0.2759,0.2759,0.276,0.2643,0.2639,0.2649,0.265,0.2656,0.2661,0.2658,0.2669,0.267,0.2674,0.2685,0.2684,0.2692,0.27,0.2705,0.2704,0.2712,0.2708,0.2706,0.2704,0.27,0.2742,0.2705,0.2705,0.2705,0.2705,0.2706,0,0.2601,0.2608,0.2609,0.2616,0.2617,0.2631,0.2638,0.2637,0.2635,0.2642,0.2644,0.2644,0.2645,0.2658,0.266,0.2656,0.2662,0.2656,0.2655,0.2656,0.2694,0.2695,0.2651,0.2651,0.2651,0.2651,0.2651,0.2651,0.2578,0.2572,0.2581,0.2577,0.2584,0.2583,0.2585,0.2589,0.2595,0.2594,0.2595,0.2603,0.2611,0.2614,0.2616,0.2619,0.2618,0.2609,0.2614,0.2649,0.2654,0.2659,0.266,0.2609,0.2609,0.2577,0.2576,0.2576]},{"header":{"parameterUnit":"m.s-1","parameterCategory":1,"la1":30.2991,"la2":30.254,"lo1":-89.0895,"lo2":-89.0444,"dy":0.0017,"dx":0.0017,"nx":28,"ny":28,"refTime":"2025-09-05T03:00:00:Z","depth":0,"parameterNumber":3,"parameterNumberName":"V-component_of_WINDS"},"data":[0,0,0,0,0,0,0,0,0,0,0,0,0,0,0,0,0,0,0,0,0,0,0,0,0,0,0,0,0,0,0,0,0,0,0,0,0,0,0,0,0,0,0,0,0,0,0,0,0,0,0,0,0,0,0,0,0,0,3.8709,3.8709,0,3.869,3.8689,3.8689,3.8666,3.8666,3.8665,3.8665,3.8643,3.8642,3.8642,0,0,0,0,0,0,0,0,0,0,0,0,0,3.8726,3.8726,3.8709,3.8709,3.8709,3.869,3.8689,3.8689,3.8666,3.8666,3.8665,3.8665,3.8643,3.8642,3.8642,0,0,0,0,0,0,0,0,0,0,0,0,0,3.8714,3.8726,3.8709,3.8695,3.8694,3.869,3.8689,3.8689,3.8666,3.8666,3.8665,3.8665,3.8643,3.8642,3.8642,3.865,0,0,3.8641,3.8641,0,0,0,0,0,0,0,0,3.8714,3.8713,3.8697,3.8696,3.8694,3.868,3.8687,3.8676,3.8666,3.8676,3.8665,3.8664,3.8655,3.8654,3.8651,3.8649,3.8648,3.8641,3.8641,3.864,3.864,0,0,0,0,0,0,0,3.8715,3.8714,3.8701,3.8697,3.8695,3.8689,3.8687,3.8685,3.8669,3.8676,3.8674,3.8672,3.8654,3.8652,3.8651,3.8648,3.8641,3.864,3.864,3.864,3.8651,3.8652,0,0,0,0,0,0,3.8719,3.8715,3.8702,3.8701,3.8703,3.8689,3.8687,3.8685,3.8669,3.8666,3.8672,3.8671,3.8653,3.8651,3.865,3.8657,3.864,3.864,3.864,3.8651,3.8651,3.8652,0,0,0,0,0,0,3.8719,3.8718,3.8703,3.8707,3.8705,3.869,3.8688,3.8685,3.8682,3.8667,3.8663,3.8673,3.8652,3.865,3.865,3.8656,3.864,3.864,3.865,3.8651,3.8652,3.8674,0,0,0,0,0,0,3.872,3.8718,3.8721,3.8708,3.8705,3.8704,3.8688,3.8685,3.8682,3.868,3.8666,3.8663,3.8652,3.8651,3.865,3.8656,3.8639,3.8649,3.865,3.8651,3.8672,3.8675,3.8678,0,0,0,0,0,3.872,3.8727,3.8721,3.872,3.8708,3.8705,3.8703,3.869,3.8682,3.8685,3.8675,3.8664,3.8657,3.8651,3.865,3.8655,3.8649,3.865,3.8651,3.8671,3.8675,3.8677,0,0,0,0,0,0,3.8741,3.8725,3.8718,3.8722,3.8715,3.8701,3.8704,3.8694,3.8689,3.8687,3.8671,3.8668,3.867,3.8663,3.8657,3.8662,3.8651,3.8652,3.8666,3.867,3.8672,3.8673,3.8639,0,0,0,0,0,3.8746,3.8745,3.8731,3.8735,3.8732,3.8719,3.8717,3.8708,3.8699,3.8696,3.8686,3.8679,3.8674,3.8672,3.8667,3.8672,3.8668,3.8675,3.8678,3.868,3.868,3.8682,3.8685,3.8656,3.8656,3.8656,0,0,3.8756,3.8748,3.8748,3.8739,3.8733,3.8731,3.8716,3.8715,3.8714,3.8696,3.8695,3.8688,3.8678,3.8681,3.8681,3.8675,3.8688,3.8682,3.8684,3.8683,3.8684,3.8686,3.8689,3.8657,3.8657,3.8656,0,0,3.8774,3.8768,3.877,3.8764,3.8755,3.8746,3.8747,3.8735,3.873,3.8729,3.8716,3.8714,3.8707,3.8701,3.8697,3.8714,3.8702,3.8713,3.8726,3.8727,3.8729,3.8731,3.8736,3.8739,3.8714,3.8714,3.8714,0,3.8787,3.8785,3.8772,3.8772,3.8769,3.8754,3.8756,3.8751,3.8741,3.8739,3.8733,3.8724,3.8717,3.8717,3.8721,3.8719,3.8719,3.8713,3.873,3.8732,3.8734,3.8738,3.874,3.8715,3.8715,3.8715,3.8714,0,3.8801,3.88,3.8803,3.8794,3.8792,3.8793,3.8781,3.8779,3.8771,3.8763,3.8762,3.8753,3.8746,3.8746,3.8738,3.8746,3.8742,3.8734,3.8721,3.8738,3.8742,3.8744,3.8717,3.8716,3.8716,3.8715,0,0,3.8829,3.8815,3.8816,3.8812,3.8802,3.88,3.8801,3.8795,3.8794,3.8788,3.8788,3.8783,3.8775,3.8771,3.8762,3.8764,3.8777,3.8754,3.8754,3.8758,3.8784,3.8789,3.8792,3.877,3.877,3.8771,3.8784,0,3.8843,3.8844,3.8834,3.8837,3.8835,3.8822,3.8822,3.8816,3.8809,3.8806,3.8798,3.8795,3.8785,3.8783,3.8784,3.8775,3.8781,3.8774,3.8768,3.8768,3.877,3.8794,3.8799,3.8813,3.8786,3.8786,3.8786,0,3.886,3.8855,3.8859,3.8849,3.8848,3.8848,3.8842,3.8841,3.8833,3.8828,3.8824,3.8814,3.8813,3.8804,3.8803,3.8798,3.8795,3.8791,3.8791,3.8788,3.8777,3.8791,3.8817,3.8818,3.8789,3.8789,3.8788,0,3.8878,3.8874,3.8875,3.8872,3.886,3.8861,3.8857,3.8849,3.8846,3.8841,3.8839,3.8834,3.8831,3.8827,3.8816,3.881,3.8816,3.8806,3.8811,3.8811,3.8811,3.8811,3.8836,3.8812,3.8812,3.8812,3.8812,0,3.8895,3.8897,3.8883,3.8883,3.8886,3.8874,3.8877,3.8871,3.8864,3.8863,3.8851,3.885,3.8837,3.8834,3.8826,3.8826,3.8825,3.882,3.8817,3.882,3.8821,3.8817,3.8815,3.8813,3.8813,3.8813,3.8813,0,3.8915,3.8906,3.8906,3.8896,3.8894,3.8895,3.8886,3.8886,3.8879,3.8878,3.8877,3.8866,3.8862,3.8852,3.8845,3.884,3.8842,3.8838,3.8844,3.8842,3.8848,3.8847,3.887,3.8872,3.8849,3.8849,3.8849,0,3.8925,3.8926,3.8917,3.8916,3.8911,3.891,3.8907,3.8897,3.8894,3.8887,3.8888,3.8884,3.888,3.8875,3.8866,3.8861,3.8856,3.8864,3.8855,3.8858,3.8854,3.8854,3.8854,3.8866,3.8866,3.8866,3.8866,0,3.8943,3.8939,3.8936,3.8932,3.893,3.8926,3.8922,3.8921,3.8909,3.8908,3.8904,3.8901,3.8896,3.8892,3.8886,3.888,3.8871,3.887,3.8871,3.8872,3.8876,3.8873,3.8848,3.8869,3.8868,3.8868,3.8868,3.8868,3.8958,3.8959,3.8952,3.8949,3.8945,3.8942,3.8941,3.8934,3.8932,3.8927,3.8921,3.8918,3.8911,3.8902,3.8898,3.8896,3.8891,3.8892,3.8892,3.8892,3.8893,3.8878,3.8895,3.8895,3.8894,3.8894,3.8894,0,3.8975,3.897,3.8968,3.8963,3.8961,3.8954,3.8949,3.8947,3.8945,3.894,3.8937,3.8933,3.893,3.8921,3.8916,3.8916,3.8912,3.8915,3.8914,3.8913,3.8898,3.8897,3.8919,3.8919,3.8919,3.8919,3.8919,3.8919,3.8983,3.8984,3.8979,3.8978,3.8973,3.8971,3.8969,3.8965,3.8961,3.8958,3.8955,3.895,3.8943,3.8938,3.8934,3.8932,3.893,3.8934,3.893,3.8916,3.8914,3.8912,3.8911,3.8934,3.8934,3.8945,3.8945,3.8945]}]]